User: anonymous   Login
Location: Fours
(44.3167°N, 6.7000°E)
Time: 07:49:11
(UTC+00:00)
Language:

Timation 2 Rocket - Orbit

View from above orbital plane
View from above orbital plane
View from above satellite
View from above satellite

Ground track
Ground track

The orbit data is extracted from the following two-line orbital elements,

1 04159U 69082AB  22276.87059815  .00000035  00000-0  88509-4 0  9998
2 04159  69.9606 133.3008 0116215 203.9085 155.6587 13.72513590652992
Epoch (UTC): 03 October 2022 20:53:39
Eccentricity: 0.0116215
inclination: 69.9606°
perigee height: 905 km
apogee height: 1076 km
right ascension of ascending node: 133.3008°
argument of perigee: 203.9085°
revolutions per day: 13.72513590
mean anomaly at epoch: 155.6587°
orbit number at epoch: 65299

The dashed part of the orbit path shows where the satellite is in the earth's shadow,  

DLR